Location: Burgerwiesen
(48.6500°N, 15.6167°E)
Time: 10:00:47
(UTC+00:00)

SL-8 Rocket - Pass Details

Date: 09 April 2020
Orbit: 957 x 991 km, 82.9° (Epoch: 06 June)

Event Time Altitude Azimuth Distance (km) Brightness Sun altitude
Rises 19:21:28 0° 351° (N) 3,710 7.7 -16.1°
Reaches altitude 10° 19:23:59 10° 352° (N) 2,761 6.9 -16.4°
Maximum altitude 19:30:21 83° 80° (E) 1,005 4.0 -17.3°
Enters shadow 19:35:19 18° 169° (SSE) 2,247 5.5 -18.0°
